TimeEDT,TemperatureF,Dew PointF,Humidity,Sea Level PressureIn,VisibilityMPH,Wind Direction,Wind SpeedMPH,Gust SpeedMPH,PrecipitationIn,Events,Conditions,WindDirDegrees,DateUTC
12:53 AM,52.0,48.9,89,30.09,10.0,SSE,3.5,-,N/A,,Clear,150,2013-09-15 04:53:00
1:53 AM,51.1,48.0,89,30.10,10.0,Calm,Calm,-,N/A,,Clear,0,2013-09-15 05:53:00
2:53 AM,50.0,48.0,93,30.10,10.0,Calm,Calm,-,N/A,,Clear,0,2013-09-15 06:53:00
3:53 AM,48.0,46.9,96,30.12,4.0,Calm,Calm,-,N/A,,Scattered Clouds,0,2013-09-15 07:53:00
4:53 AM,48.0,46.0,93,30.13,3.0,Calm,Calm,-,N/A,,Clear,0,2013-09-15 08:53:00
5:49 AM,46.4,44.6,93,30.11,2.5,Calm,Calm,-,N/A,,Scattered Clouds,0,2013-09-15 09:49:00
5:53 AM,46.0,46.0,100,30.15,2.0,Calm,Calm,-,N/A,,Scattered Clouds,0,2013-09-15 09:53:00
6:04 AM,46.4,44.6,93,30.11,7.0,Calm,Calm,-,N/A,,Scattered Clouds,0,2013-09-15 10:04:00
6:53 AM,46.9,46.0,97,30.17,10.0,SSW,3.5,-,N/A,,Clear,210,2013-09-15 10:53:00
7:53 AM,48.9,46.9,93,30.16,10.0,Calm,Calm,-,N/A,,Clear,0,2013-09-15 11:53:00
8:53 AM,54.0,48.0,80,30.17,10.0,Calm,Calm,-,N/A,,Clear,0,2013-09-15 12:53:00
9:53 AM,57.9,50.0,75,30.19,10.0,Calm,Calm,-,N/A,,Clear,0,2013-09-15 13:53:00
10:53 AM,63.0,45.0,52,30.18,10.0,West,8.1,-,N/A,,Clear,270,2013-09-15 14:53:00
11:53 AM,64.9,45.0,48,30.16,10.0,West,5.8,-,N/A,,Clear,270,2013-09-15 15:53:00
12:53 PM,66.9,44.1,44,30.14,10.0,SSW,8.1,-,N/A,,Clear,210,2013-09-15 16:53:00
1:53 PM,69.1,42.1,38,30.13,10.0,WNW,8.1,-,N/A,,Clear,290,2013-09-15 17:53:00
2:53 PM,69.1,45.0,42,30.10,10.0,SSW,5.8,-,N/A,,Clear,210,2013-09-15 18:53:00
3:53 PM,69.1,44.1,40,30.09,10.0,West,5.8,-,N/A,,Clear,280,2013-09-15 19:53:00
4:53 PM,69.1,46.9,45,30.09,10.0,WSW,8.1,-,N/A,,Clear,240,2013-09-15 20:53:00
5:53 PM,68.0,48.9,50,30.08,10.0,West,3.5,-,N/A,,Clear,280,2013-09-15 21:53:00
6:53 PM,64.9,51.1,61,30.07,10.0,South,5.8,-,N/A,,Clear,170,2013-09-15 22:53:00
7:53 PM,62.1,54.0,75,30.08,10.0,SSW,3.5,-,N/A,,Clear,200,2013-09-15 23:53:00
8:53 PM,61.0,53.1,75,30.08,10.0,SSW,3.5,-,N/A,,Clear,200,2013-09-16 00:53:00
9:53 PM,60.1,52.0,75,30.08,10.0,South,3.5,-,N/A,,Clear,170,2013-09-16 01:53:00
10:53 PM,60.1,52.0,75,30.07,10.0,Calm,Calm,-,N/A,,Clear,0,2013-09-16 02:53:00
11:53 PM,57.9,52.0,81,30.06,10.0,SSE,3.5,-,N/A,,Clear,150,2013-09-16 03:53:00